When you browse on this site, cookies collect data to enhance your experience and personalize the content and advertising you see.
Visit our Privacy Policy to learn more. By continuing to use the site, you agree to this use of cookies and data.
  • In Hungary
  • List of Countries
  • For 7 days
  • Water Temperature
  • Weather Map
  • News
  • Weather Widgets
  • user-avatar
    Login

    Hourly Weather Nilmoguba

    Today, 24 August, Saturday

    Time Temperature Precipitation Wind Pressure Humidity
    00:00 +12°C° 0 mm 1 mps 759 mmHg 91%
    01:00 +12°C° 0 mm 1 mps 759 mmHg 91%
    02:00 +12°C° 0 mm 2 mps 759 mmHg 94%
    03:00 +12°C° 0.1 mm 2 mps 759 mmHg 94%
    04:00 +11°C° 0.1 mm 3 mps 759 mmHg 94%
    05:00 +11°C° 0.1 mm 4 mps 759 mmHg 94%
    06:00 +11°C° 0.2 mm 4 mps 759 mmHg 94%
    07:00 +11°C° 0.2 mm 4 mps 759 mmHg 94%
    08:00 +11°C° 0 mm 4 mps 759 mmHg 95%
    09:00 +11°C° 0.2 mm 4 mps 760 mmHg 95%
    10:00 +11°C° 0.2 mm 4 mps 760 mmHg 94%
    11:00 +11°C° 0.2 mm 3 mps 760 mmHg 93%
    12:00 +11°C° 0.2 mm 3 mps 761 mmHg 93%
    13:00 +11°C° 0.2 mm 4 mps 761 mmHg 93%
    14:00 +13°C° 0 mm 2 mps 762 mmHg 91%
    15:00 +12°C° 0.2 mm 2 mps 762 mmHg 92%
    16:00 +12°C° 0.2 mm 2 mps 763 mmHg 93%
    17:00 +12°C° 0.2 mm 2 mps 763 mmHg 94%
    18:00 +12°C° 0.1 mm 2 mps 764 mmHg 94%
    19:00 +12°C° 0.1 mm 2 mps 764 mmHg 94%
    20:00 +10°C° 0.1 mm 2 mps 764 mmHg 94%
    21:00 +11°C° 0 mm 1 mps 765 mmHg 94%
    22:00 +10°C° 0 mm 1 mps 765 mmHg 94%
    23:00 +10°C° 0 mm 1 mps 766 mmHg 94%

    Tomorrow, 25 August, Sunday

    Time Temperature Precipitation Wind Pressure Humidity
    00:00 +10°C° 0 mm 1 mps 766 mmHg 94%
    01:00 +9°C° 0 mm 1 mps 766 mmHg 94%
    02:00 +9°C° 0 mm 1 mps 766 mmHg 94%
    03:00 +9°C° 0 mm 1 mps 767 mmHg 94%
    04:00 +9°C° 0 mm 1 mps 767 mmHg 95%
    05:00 +9°C° 0 mm 1 mps 767 mmHg 95%
    06:00 +10°C° 0 mm 1 mps 767 mmHg 93%
    07:00 +11°C° 0 mm 1 mps 767 mmHg 91%
    08:00 +12°C° 0 mm 1 mps 767 mmHg 89%
    09:00 +12°C° 0 mm 1 mps 767 mmHg 86%
    10:00 +13°C° 0 mm 1 mps 767 mmHg 84%
    11:00 +13°C° 0 mm 1 mps 766 mmHg 81%
    12:00 +14°C° 0 mm 1 mps 766 mmHg 77%
    13:00 +14°C° 0 mm 1 mps 766 mmHg 72%
    14:00 +15°C° 0 mm 1 mps 765 mmHg 67%
    15:00 +14°C° 0.2 mm 1 mps 765 mmHg 75%
    16:00 +13°C° 0.2 mm 2 mps 764 mmHg 82%
    17:00 +12°C° 0.2 mm 2 mps 764 mmHg 89%
    18:00 +11°C° 1.3 mm 3 mps 763 mmHg 91%
    19:00 +11°C° 1.3 mm 3 mps 762 mmHg 94%
    20:00 +11°C° 1.3 mm 4 mps 761 mmHg 96%
    21:00 +11°C° 1.8 mm 4 mps 761 mmHg 96%
    22:00 +10°C° 1.8 mm 5 mps 760 mmHg 96%
    23:00 +10°C° 1.8 mm 5 mps 759 mmHg 96%

    Day after tomorrow, 26 August, Monday

    Time Temperature Precipitation Wind Pressure Humidity
    00:00 +10°C° 0.7 mm 5 mps 758 mmHg 95%
    01:00 +10°C° 0.7 mm 5 mps 757 mmHg 95%
    02:00 +12°C° 0.7 mm 4 mps 756 mmHg 95%
    03:00 +12°C° 0.3 mm 5 mps 756 mmHg 95%
    04:00 +12°C° 0.3 mm 5 mps 755 mmHg 94%
    05:00 +12°C° 0.3 mm 5 mps 755 mmHg 94%
    06:00 +12°C° 0 mm 5 mps 754 mmHg 92%
    07:00 +13°C° 0 mm 5 mps 754 mmHg 90%
    08:00 +13°C° 0 mm 6 mps 754 mmHg 88%
    09:00 +13°C° 0 mm 6 mps 754 mmHg 84%
    10:00 +14°C° 0 mm 6 mps 754 mmHg 81%
    11:00 +14°C° 0 mm 6 mps 754 mmHg 77%
    12:00 +14°C° 0 mm 7 mps 754 mmHg 78%
    13:00 +14°C° 0 mm 7 mps 755 mmHg 78%
    14:00 +12°C° 0 mm 7 mps 755 mmHg 79%
    15:00 +12°C° 0 mm 7 mps 756 mmHg 78%
    16:00 +12°C° 0 mm 7 mps 757 mmHg 76%
    17:00 +12°C° 0 mm 7 mps 757 mmHg 75%
    18:00 +11°C° 0 mm 7 mps 758 mmHg 77%
    19:00 +11°C° 0 mm 7 mps 759 mmHg 78%
    20:00 +10°C° 0 mm 6 mps 759 mmHg 80%
    21:00 +9°C° 0 mm 5 mps 760 mmHg 83%
    22:00 +8°C° 0 mm 5 mps 761 mmHg 86%
    23:00 +7°C° 0 mm 4 mps 762 mmHg 89%

    27 August, Tuesday

    Time Temperature Precipitation Wind Pressure Humidity
    00:00 +7°C° 0 mm 4 mps 763 mmHg 90%
    01:00 +7°C° 0 mm 3 mps 763 mmHg 90%
    02:00 +7°C° 0 mm 3 mps 764 mmHg 90%
    03:00 +7°C° 0 mm 3 mps 765 mmHg 89%
    04:00 +5°C° 0 mm 3 mps 765 mmHg 88%
    05:00 +5°C° 0 mm 3 mps 766 mmHg 87%
    06:00 +5°C° 0 mm 3 mps 766 mmHg 82%
    07:00 +7°C° 0 mm 3 mps 767 mmHg 77%
    08:00 +7°C° 0 mm 3 mps 767 mmHg 72%
    09:00 +7°C° 0 mm 3 mps 767 mmHg 68%
    10:00 +8°C° 0 mm 2 mps 768 mmHg 64%
    11:00 +9°C° 0 mm 1 mps 768 mmHg 60%
    12:00 +10°C° 0 mm 1 mps 768 mmHg 58%
    13:00 +11°C° 0 mm 1 mps 768 mmHg 55%
    14:00 +11°C° 0 mm 1 mps 768 mmHg 53%
    15:00 +11°C° 0 mm 1 mps 768 mmHg 54%
    16:00 +11°C° 0 mm 1 mps 768 mmHg 54%
    17:00 +11°C° 0 mm 1 mps 768 mmHg 55%
    18:00 +9°C° 0 mm 2 mps 769 mmHg 60%
    19:00 +8°C° 0 mm 2 mps 769 mmHg 65%
    20:00 +7°C° 0 mm 3 mps 769 mmHg 70%
    21:00 +7°C° 0 mm 3 mps 769 mmHg 70%
    22:00 +7°C° 0 mm 3 mps 769 mmHg 69%
    23:00 +7°C° 0 mm 3 mps 769 mmHg 69%

    28 August, Wednesday

    Time Temperature Precipitation Wind Pressure Humidity
    00:00 +7°C° 0.1 mm 3 mps 769 mmHg 71%
    01:00 +7°C° 0.1 mm 3 mps 769 mmHg 72%
    02:00 +7°C° 0.1 mm 3 mps 769 mmHg 74%
    03:00 +6°C° 0.5 mm 4 mps 769 mmHg 79%
    04:00 +5°C° 0.5 mm 4 mps 769 mmHg 85%
    05:00 +5°C° 0.5 mm 4 mps 768 mmHg 90%
    06:00 +5°C° 0.2 mm 4 mps 768 mmHg 90%
    07:00 +6°C° 0.2 mm 4 mps 768 mmHg 90%
    08:00 +6°C° 0.2 mm 4 mps 768 mmHg 89%
    09:00 +7°C° 0 mm 4 mps 768 mmHg 88%
    10:00 +8°C° 0 mm 4 mps 768 mmHg 87%
    11:00 +8°C° 0 mm 4 mps 768 mmHg 86%
    12:00 +10°C° 0.1 mm 3 mps 767 mmHg 85%
    13:00 +11°C° 0.1 mm 3 mps 767 mmHg 84%
    14:00 +11°C° 0.1 mm 3 mps 767 mmHg 83%
    15:00 +11°C° 0 mm 3 mps 767 mmHg 84%
    16:00 +11°C° 0 mm 3 mps 767 mmHg 84%
    17:00 +11°C° 0 mm 3 mps 766 mmHg 85%
    18:00 +11°C° 0 mm 3 mps 766 mmHg 88%
    19:00 +10°C° 0 mm 3 mps 766 mmHg 91%
    20:00 +9°C° 0 mm 3 mps 766 mmHg 94%
    21:00 +9°C° 0 mm 3 mps 766 mmHg 94%
    22:00 +9°C° 0 mm 3 mps 767 mmHg 95%
    23:00 +9°C° 0 mm 3 mps 767 mmHg 95%

    29 August, Thursday

    Time Temperature Precipitation Wind Pressure Humidity
    00:00 +9°C° 0 mm 2 mps 767 mmHg 95%
    01:00 +9°C° 0 mm 2 mps 766 mmHg 95%
    02:00 +10°C° 0 mm 2 mps 766 mmHg 95%
    03:00 +10°C° 0 mm 2 mps 766 mmHg 95%
    04:00 +10°C° 0 mm 2 mps 766 mmHg 95%
    05:00 +10°C° 0 mm 2 mps 766 mmHg 95%
    06:00 +13°C° 0 mm 2 mps 766 mmHg 92%
    07:00 +14°C° 0 mm 2 mps 766 mmHg 88%
    08:00 +16°C° 0 mm 2 mps 765 mmHg 84%
    09:00 +17°C° 0 mm 2 mps 765 mmHg 82%
    10:00 +17°C° 0 mm 2 mps 765 mmHg 80%
    11:00 +18°C° 0 mm 2 mps 765 mmHg 78%
    12:00 +18°C° 0 mm 2 mps 765 mmHg 78%
    13:00 +19°C° 0 mm 2 mps 765 mmHg 78%
    14:00 +19°C° 0 mm 2 mps 764 mmHg 78%
    15:00 +18°C° 0 mm 2 mps 764 mmHg 82%
    16:00 +18°C° 0 mm 2 mps 764 mmHg 86%
    17:00 +17°C° 0 mm 2 mps 764 mmHg 90%
    18:00 +18°C° 0 mm 1 mps 764 mmHg 92%
    19:00 +16°C° 0 mm 1 mps 764 mmHg 94%
    20:00 +16°C° 0 mm 1 mps 764 mmHg 96%
    21:00 +16°C° 0 mm 1 mps 764 mmHg 96%
    22:00 +16°C° 0 mm 2 mps 764 mmHg 96%
    23:00 +16°C° 0 mm 2 mps 764 mmHg 96%
    Show more